NOAA 10 (16969 NORAD) Tracking and Keplerian Element Data

This shows tracking and keplerian element data for the satellite.

Feedback or suggestion? Click here.




ElementValue
Catalog16969
NameNOAA 10
Epoch Orbit99824
Epoch Day34.93553315
Epoch Year2025
RAAN25.0104
Inclination98.6649
Eccentricity0.0012464
Argument of Perigee18.9964
Mean Anonmoly34.8319
Mean Motion14.28906763
Decay Rate3.99E-06
L11 16969U 86073A 25034.93553315 .00000399 00000+0 17530-3 0 9992
L22 16969 98.6649 25.0104 0012464 18.9964 34.8319 14.28906763998247



Live tracking and technical data element details for NOAA 10 (NORAD 16969). NOAA 10 can be tracked NOW for your location showing map with azimuth and elevation plus other details from your city location.







IsCatalogInMostPopularTable: catalog: 16969, numindb: 514
Update: records affected: 1



GetName: 16969 NOAA 10

Hit Count: updated at: Fri, 16 May 2025 11:35:55 GMT